TimePDT,TemperatureF,Dew PointF,Humidity,Sea Level PressureIn,VisibilityMPH,Wind Direction,Wind SpeedMPH,Gust SpeedMPH,PrecipitationIn,Events,Conditions,WindDirDegrees,DateUTC
12:08 AM,60.8,51.8,72,29.99,10.0,SSE,9.2,-,N/A,,Overcast,150,2013-06-18 07:08:00
12:15 AM,60.8,51.8,72,29.99,10.0,SSE,8.1,-,N/A,,Overcast,150,2013-06-18 07:15:00
12:53 AM,60.1,52.0,75,29.99,10.0,SSE,8.1,-,N/A,,Overcast,150,2013-06-18 07:53:00
1:53 AM,59.0,52.0,78,29.99,10.0,SSE,5.8,-,N/A,,Mostly Cloudy,160,2013-06-18 08:53:00
2:53 AM,57.0,51.1,81,29.98,10.0,South,3.5,-,N/A,,Partly Cloudy,170,2013-06-18 09:53:00
3:53 AM,59.0,51.1,75,29.98,10.0,SSE,3.5,-,N/A,,Mostly Cloudy,160,2013-06-18 10:53:00
4:53 AM,59.0,52.0,78,29.99,10.0,South,3.5,-,N/A,,Mostly Cloudy,190,2013-06-18 11:53:00
5:53 AM,59.0,52.0,78,29.99,10.0,South,3.5,-,0.00,,Mostly Cloudy,170,2013-06-18 12:53:00
6:53 AM,60.1,52.0,75,29.98,10.0,SE,3.5,-,N/A,,Mostly Cloudy,130,2013-06-18 13:53:00
7:53 AM,61.0,51.1,70,29.99,10.0,South,5.8,-,N/A,,Scattered Clouds,180,2013-06-18 14:53:00
8:53 AM,64.0,46.9,54,29.98,10.0,SSW,6.9,-,N/A,,Scattered Clouds,210,2013-06-18 15:53:00
9:53 AM,66.0,48.0,52,29.97,10.0,South,9.2,-,N/A,,Partly Cloudy,180,2013-06-18 16:53:00
10:53 AM,66.9,46.0,47,29.96,10.0,South,8.1,-,N/A,,Scattered Clouds,180,2013-06-18 17:53:00
11:53 AM,69.1,45.0,42,29.95,10.0,Calm,Calm,-,N/A,,Scattered Clouds,0,2013-06-18 18:53:00
12:53 PM,70.0,44.1,39,29.94,10.0,South,9.2,16.1,N/A,,Scattered Clouds,190,2013-06-18 19:53:00
1:53 PM,72.0,43.0,35,29.93,10.0,South,9.2,-,N/A,,Scattered Clouds,180,2013-06-18 20:53:00
2:53 PM,73.0,42.1,33,29.92,10.0,SW,9.2,-,N/A,,Scattered Clouds,220,2013-06-18 21:53:00
3:53 PM,72.0,39.0,30,29.91,10.0,South,5.8,-,N/A,,Partly Cloudy,170,2013-06-18 22:53:00
4:53 PM,73.9,39.9,29,29.89,10.0,Variable,5.8,-,N/A,,Scattered Clouds,0,2013-06-18 23:53:00
5:53 PM,73.0,43.0,34,29.88,10.0,WSW,9.2,-,N/A,,Scattered Clouds,240,2013-06-19 00:53:00
6:53 PM,71.1,44.1,38,29.91,10.0,SSW,10.4,19.6,N/A,,Scattered Clouds,210,2013-06-19 01:53:00
7:53 PM,68.0,46.0,45,29.92,10.0,SW,10.4,17.3,N/A,,Mostly Cloudy,220,2013-06-19 02:53:00
8:53 PM,64.9,48.0,54,29.94,10.0,Variable,4.6,-,N/A,,Scattered Clouds,0,2013-06-19 03:53:00
9:53 PM,62.1,46.9,58,29.95,10.0,Variable,4.6,-,N/A,,Scattered Clouds,0,2013-06-19 04:53:00
10:53 PM,60.1,48.0,64,29.95,10.0,SSW,4.6,-,N/A,,Clear,200,2013-06-19 05:53:00
11:53 PM,59.0,48.0,67,29.96,10.0,Variable,4.6,-,N/A,,Partly Cloudy,0,2013-06-19 06:53:00